Alabaster, AL

5:12 AM CST on February 21, 2017 (GMT -0600)
Shelby County

Weather History for KEET - April, 2013

Change the Weather History Date:

Friday, April 12, 2013

  Actual Average Record
Temperature  
Mean Temperature 58 °F 62 °F  
Max Temperature 69 °F 73 °F 86 °F (1977)
Min Temperature 47 °F 50 °F 28 °F (1982)
Degree Days  
Heating Degree Days 7 5  
Month to date heating degree days 61 70  
Since 1 July heating degree days 2332 2508  
Cooling Degree Days 0 2  
Month to date cooling degree days 22 15  
Year to date cooling degree days 31 32  
Growing Degree Days 7 (Base 50)    
Moisture  
Dew Point 46 °F    
Average Humidity 64    
Maximum Humidity 93    
Minimum Humidity 35    
Precipitation  
Precipitation T in 0.14 in 3.40 in (1979)
Month to date precipitation 2.12 1.56  
Year to date precipitation 20.99 17.12  
Snow  
Snow 0.00 in - - ()
Month to date snowfall 0.0  
Since 1 July snowfall 0.9  
Snow Depth 0.00 in    
Sea Level Pressure  
Sea Level Pressure 29.89 in    
Wind  
Wind Speed 6 mph (NW)    
Max Wind Speed 15 mph    
Max Gust Speed 21 mph    
Visibility 9 miles    
Events      
T = Trace of Precipitation, MM = Missing Value Source: NWS Daily Summary

Daily Weather History Graph

Daily Weather History Graph

Search for Another Location

Airport or City:

Trip Planner

Search our weather history database for the weather conditions in past years. The results will help you decide how hot, cold, wet, or windy it might be!

Date:

Astronomy

Apr. 12, 2013 Rise Set
Actual Time 6:20 AM CDT 7:15 PM CDT
Civil Twilight 5:55 AM CDT 7:41 PM CDT
Nautical Twilight 5:25 AM CDT 8:11 PM CDT
Astronomical Twilight 4:54 AM CDT 8:41 PM CDT
Moon 7:36 AM CDT (4/12) 9:38 PM CDT (4/12)
Length of Visible Light 13h 45m
Length of Day
12h 55m
Waxing Crescent, 5% of the Moon is Illuminated
Apr 12
Waxing Crescent
Apr 18
First Quarter
Apr 25
Full
May 2
Last Quarter
May 9
New

Hourly Weather History & Observations

Time (CDT) Temp. Windchill Dew Point Humidity Pressure Visibility Wind Dir Wind Speed Gust Speed Precip Events Conditions
12:49 AM 57.2 °F - 55.4 °F 94% 29.78 in 10.0 mi West 6.9 mph - N/A   Overcast
12:53 AM 57.9 °F - 55.9 °F 93% 29.76 in 9.0 mi West 6.9 mph - N/A   Overcast
1:28 AM 57.2 °F - 55.4 °F 94% 29.79 in 8.0 mi WSW 5.8 mph - N/A   Overcast
1:53 AM 55.9 °F - 53.1 °F 90% 29.77 in 5.0 mi WNW 8.1 mph 17.3 mph 0.00 in   Overcast
2:21 AM 55.4 °F - 53.6 °F 94% 29.80 in 10.0 mi West 8.1 mph - N/A   Overcast
2:53 AM 54.0 °F - 52.0 °F 93% 29.79 in 9.0 mi WNW 9.2 mph - N/A   Overcast
3:02 AM 53.6 °F - 51.8 °F 94% 29.81 in 8.0 mi WNW 6.9 mph - N/A   Overcast
3:53 AM 53.1 °F - 50.0 °F 89% 29.81 in 5.0 mi WNW 10.4 mph - N/A   Overcast
4:32 AM 51.8 °F - 48.2 °F 88% 29.84 in 9.0 mi WNW 11.5 mph 16.1 mph N/A   Overcast
4:41 AM 50.0 °F - 46.4 °F 87% 29.84 in 10.0 mi NW 9.2 mph - N/A   Mostly Cloudy
4:53 AM 50.0 °F - 46.0 °F 86% 29.84 in 10.0 mi NW 12.7 mph 18.4 mph N/A   Mostly Cloudy
5:37 AM 48.2 °F - 44.6 °F 87% 29.85 in 9.0 mi NW 8.1 mph - N/A   Scattered Clouds
5:53 AM 46.9 °F - 44.1 °F 90% 29.86 in 8.0 mi NW 6.9 mph - N/A   Scattered Clouds
6:08 AM 46.4 °F 41.5 °F 44.6 °F 93% 29.87 in 7.0 mi NW 10.4 mph - N/A   Mostly Cloudy
6:53 AM 46.9 °F - 44.1 °F 90% 29.90 in 6.0 mi NNW 9.2 mph - N/A   Mostly Cloudy
7:53 AM 46.9 °F - 43.0 °F 86% 29.92 in 6.0 mi NNW 6.9 mph - N/A   Overcast
8:45 AM 50.0 °F - 44.6 °F 82% 29.94 in 8.0 mi Variable 5.8 mph - N/A   Scattered Clouds
8:53 AM 51.1 °F - 42.1 °F 71% 29.93 in 9.0 mi North 6.9 mph 17.3 mph N/A   Scattered Clouds
9:53 AM 54.0 °F - 43.0 °F 66% 29.96 in 10.0 mi NNW 8.1 mph - N/A   Clear
10:53 AM 57.0 °F - 42.1 °F 57% 29.96 in 10.0 mi NNW 8.1 mph - N/A   Clear
11:53 AM 60.1 °F - 43.0 °F 53% 29.96 in 10.0 mi NW 12.7 mph 17.3 mph N/A   Clear
12:53 PM 62.1 °F - 42.1 °F 48% 29.95 in 10.0 mi NNW 9.2 mph - N/A   Clear
1:53 PM 64.0 °F - 43.0 °F 46% 29.93 in 10.0 mi WNW 6.9 mph - N/A   Clear
2:53 PM 64.9 °F - 41.0 °F 42% 29.92 in 10.0 mi WNW 6.9 mph - N/A   Clear
3:53 PM 66.9 °F - 39.9 °F 37% 29.90 in 10.0 mi Variable 6.9 mph - N/A   Clear
4:53 PM 68.0 °F - 39.9 °F 36% 29.90 in 10.0 mi Variable 5.8 mph - N/A   Clear
5:53 PM 66.9 °F - 39.9 °F 37% 29.90 in 10.0 mi NNW 8.1 mph - N/A   Clear
6:53 PM 64.0 °F - 41.0 °F 43% 29.92 in 10.0 mi WNW 3.5 mph - N/A   Clear
7:53 PM 59.0 °F - 46.0 °F 62% 29.93 in 10.0 mi Calm Calm - N/A   Clear
8:53 PM 57.0 °F - 48.9 °F 74% 29.96 in 10.0 mi Calm Calm - N/A   Clear
9:53 PM 55.0 °F - 48.0 °F 77% 29.98 in 10.0 mi Calm Calm - N/A   Clear
10:53 PM 53.1 °F - 46.0 °F 77% 29.99 in 10.0 mi Calm Calm - N/A   Clear
11:53 PM 52.0 °F - 45.0 °F 77% 29.99 in 10.0 mi Calm Calm - N/A   Clear